Home > Weather > Corpus Christi > Past weeks

Flag for USA Past Weather in Corpus Christi, Texas, USA — Yesterday and Last 2 Weeks

Now
89 °F

Passing clouds.


Feels Like: 99 °F
Forecast: 79 / 93 °F
Wind: 16 mph from Southeast

Location: Corpus Christi International Airport

Current Time: Jul 1, 2016 at 7:18:44 PM

Latest Report: Jul 1, 2016 at 6:51 PM


Visibility: 10 mi

Pressure: 29.93 "Hg

Humidity: 63%

Dew Point: 75 °F

Location of Corpus ChristiLocation

Past Weather in Corpus Christi — Graph

°F

Corpus Christi Temperature Yesterday

Maximum temperature yesterday: 94 °F (at 3:51 PM)
Minimum temperature yesterday: 75 °F (at 6:51 AM)
Average temperature yesterday: 84 °F

High & Low Weather Summary for the Past Weeks

 TemperatureHumidityPressure
High97 °F (Jun 28, 2:51 PM)100% (Jun 18, 5:51 AM)30.17 "Hg (Jun 18, 5:51 AM)
Low74 °F (Jun 28, 6:51 AM)41% (Jun 28, 1:51 PM)29.88 "Hg (Jun 17, 6:51 PM)
Average84 °F75%30.00 "Hg
* Reported Jun 16 5:51 PM — Jul 1 5:51 PM, Corpus Christi, Weather by CustomWeather, © 2016

Note: Actual official high and low records may vary slightly from our data, if they occured in-between our weather recording intervals... More about our weather records

Advertising

Corpus Christi Weather History for the Previous 24 Hours

Scroll right to see more
 ConditionsComfort  
Time TempWeatherWind HumidityBarometerVisibility
5:51 PM
Fri, Jul 1
91 °FPassing clouds.14 mph61%29.93 "Hg10 mi
4:51 PM93 °FScattered clouds.14 mph58%29.93 "Hg10 mi
3:51 PM93 °FScattered clouds.10 mph58%29.95 "Hg10 mi
2:51 PM94 °FScattered clouds.12 mph56%29.95 "Hg10 mi
1:51 PM92 °FPartly sunny.10 mph58%29.97 "Hg10 mi
12:51 PM95 °FBroken clouds.6 mph51%29.98 "Hg10 mi
11:51 AM92 °FScattered clouds.6 mph54%30.00 "Hg10 mi
10:51 AM90 °FScattered clouds.7 mph59%30.01 "Hg10 mi
9:51 AM88 °FScattered clouds.13 mph65%30.01 "Hg10 mi
8:51 AM85 °FScattered clouds.10 mph77%29.99 "Hg10 mi
7:51 AM80 °FPassing clouds.6 mph90%29.98 "Hg10 mi
6:51 AM76 °FPassing clouds.7 mph94%29.96 "Hg10 mi
5:51 AM77 °FPassing clouds.No wind90%29.96 "Hg10 mi
4:51 AM77 °FPassing clouds.5 mph90%29.95 "Hg10 mi
3:51 AM78 °FPassing clouds.5 mph90%29.94 "Hg10 mi
2:51 AM78 °FPassing clouds.3 mph90%29.94 "Hg10 mi
1:51 AM78 °FPassing clouds.7 mph90%29.95 "Hg10 mi
12:51 AM80 °FPassing clouds.5 mph87%29.95 "Hg10 mi
11:51 PM
Thu, Jun 30
80 °FPassing clouds.3 mph87%29.95 "Hg10 mi
10:51 PM81 °FPassing clouds.7 mph85%29.92 "Hg10 mi
9:51 PM82 °FPassing clouds.8 mph82%29.92 "Hg10 mi
8:51 PM83 °FPassing clouds.9 mph72%29.90 "Hg10 mi
7:51 PM86 °FPartly sunny.8 mph67%29.89 "Hg10 mi
Weather by CustomWeather, © 2016

See weather overviewHow to use our weather pages